Regional Weather Roundup
Issued by NWS

Home | Current Version | Previous Version | Graphics & Text | Print | Product List | Glossary Off
Versions: 1 2 3 4 5 6 7 8 9 10 11 12 13 14 15 16 17 18 19 20 21 22 23 24 25 26 27 28 29 30 31 32 33 34 35 36 37 38 39 40 41 42 43 44 45 46 47 48 49 50

000
ASUS43 KMKX 172300
RWRWI

WISCONSIN REGIONAL WEATHER ROUNDUP
NATIONAL WEATHER SERVICE MILWAUKEE/SULLIVAN WI
500 PM CST TUE JAN 17 2017

NOTE: "FAIR" INDICATES FEW OR NO CLOUDS BELOW 12,000 FEET WITH NO
SIGNIFICANT WEATHER AND/OR OBSTRUCTIONS TO VISIBILITY.

WIZ001-002-006>008-014>016-023>028-180000-
NORTHWEST WISCONSIN

CITY           SKY/WX    TMP DP  RH WIND       PRES   REMARKS
SUPERIOR ARPT  CLEAR     32  26  76 S3        29.92F
ASHLAND        CLEAR     32  25  75 S3        29.93S
HAYWARD        CLEAR     36  24  62 CALM      29.93R
SIREN          CLEAR     35  25  66 SW6       29.95S WCI  30
CUMBERLAND     CLEAR     34  28  80 NW6       29.95R WCI  29
RICE LAKE      CLEAR     38  31  77 W5        29.96R WCI  34
CHETEK         NOT AVBL
LADYSMITH      CLEAR     41  33  75 W3        29.93R
EAU CLAIRE     CLOUDY    35  33  92 W7        29.95R WCI  29
MENOMONIE      CLEAR     35  32  87 W12       29.96R WCI  27
NEW RICHMOND   CLEAR     32  29  87 W7        29.98R WCI  26
OSCEOLA        CLEAR     32  29  87 W6        30.01R WCI  26
$$

WIZ003>005-009-010-017-018-180000-
NORTH CENTRAL WISCONSIN

CITY           SKY/WX    TMP DP  RH WIND       PRES   REMARKS
MANITOWISH WTR CLEAR     39  22  50 N3        29.89R
ARBOR VITAE    CLEAR     37  31  79 CALM      29.88R
WOODRUFF       CLEAR     37  31  79 CALM      29.88R
RHINELANDER    CLOUDY    39  32  76 CALM      29.89R
EAGLE RIVER    CLOUDY    38  27  64 NE3       29.88R
LAND O LAKES   MOCLDY    38  21  49 CALM      29.89R
PHILLIPS       CLEAR     38  31  75 CALM      29.89R
TOMAHAWK       MOCLDY    36  31  83 CALM      29.89S
MEDFORD        CLOUDY    37  34  88 W3        29.89R
MERRILL        CLOUDY    36  35  99 CALM        N/A
$$

WIZ029-030-035-036-043>047-180000-
CENTRAL WISCONSIN

CITY           SKY/WX    TMP DP  RH WIND       PRES   REMARKS
WAUSAU         CLOUDY    35  34  96 W3        29.89R
MOSINEE        CLOUDY    34  34 100 NW3       29.90R FOG
MARSHFIELD     CLOUDY    35  32  88 NW6       29.90R WCI  30
STEVENS POINT  CLOUDY    33  33 100 CALM      29.91R FOG
WAUPACA        CLOUDY    36  34  92 CALM      29.91R
WAUTOMA        CLOUDY    34  33  96 NW3       29.92R FOG
WISC RAPIDS    CLOUDY    35  35 100 NW5       29.93R FOG     WCI  31
CAMP DOUGLAS   NOT AVBL
$$

WIZ011>013-019>022-031-037>040-048>050-180000-
NORTHEAST WISCONSIN

CITY           SKY/WX    TMP DP  RH WIND       PRES   REMARKS
ANTIGO         CLOUDY    33  33 100 N5        29.88R WCI  28
SHAWANO        CLOUDY    35  33  94 N5        29.90R FOG     WCI  31
OCONTO         NOT AVBL
STURGEON BAY   MIX PCPN  32  32 100 N10       29.88R VSB 1/4 WCI  24
GREEN BAY      CLOUDY    35  35 100 NW7       29.90R FOG     WCI  29
MANITOWOC      NOT AVBL
APPLETON       FOG       34  34 100 NW5       29.88R VSB 1/4 WCI  30
CLINTONVILLE   DRIZZLE   34  32  93 N3        29.90R
OSHKOSH        LGT RAIN  34  32  92 NW6       29.90R FOG     WCI  29
$$

WIZ032>034-041-042-053>061-180000-
SOUTHWEST WISCONSIN

CITY           SKY/WX    TMP DP  RH WIND       PRES   REMARKS
LA CROSSE      LGT RAIN  36  34  92 NW6       29.97R WCI  31
SPARTA         CLOUDY    33  33 100 W3        29.95R FOG
VIROQUA        CLOUDY    32  32 100 NW7       29.93R WCI  26
BOSCOBEL       LGT SNOW  34  33  96 SW5       29.97R FOG     WCI  30
PRAIRIE DU CHI RAIN      34  33  96 W8        29.97R WCI  27
PLATTEVILLE    CLOUDY    34  34 100 W7        29.94R WCI  28
$$

WIZ056-057-062-063-064-067-068-180000-
SOUTH CENTRAL WISCONSIN

CITY           SKY/WX    TMP DP  RH WIND       PRES   REMARKS
REEDSBURG      CLOUDY    33  33 100 W5        29.92R FOG     WCI  29
BARABOO/DELLS  CLOUDY    33  33  99 W3        29.91R FOG
LONE ROCK      LGT RAIN  34  32  92 W5        29.94R FOG     WCI  30
MINERAL POINT  LGT SNOW  34  34 100 W8        29.92R WCI  27
MADISON        CLOUDY    34  33  96 NW6       29.92R FOG     WCI  29
MIDDLETON      CLOUDY    35  35 100 W6        29.92R WCI  30
WATERTOWN      CLOUDY    33  33 100 W3        29.90R FOG
MONROE         CLOUDY    32  32 100 W8        29.91R FOG     WCI  25
JANESVILLE     CLOUDY    36  36 100 W10       29.92R FOG     WCI  28
$$

WIZ051-052-058>065-066-070>072-180000-
SOUTHEAST WISCONSIN

CITY           SKY/WX    TMP DP  RH WIND       PRES   REMARKS
MILWAUKEE      CLOUDY    37  33  85 W10       29.90R WCI  30
WAUKESHA       FOG       32  32 100 W8        29.91R VSB 1/2 WCI  25
MILWAUKEE/TIMM DRIZZLE   34  32  93 W9        29.90R WCI  26
RACINE         CLOUDY    37  33  85 W6        29.92R WCI  32
KENOSHA        CLOUDY    36  34  92 W9        29.91R FOG     WCI  29
FOND DU LAC    CLOUDY    34  32  92 NW6       29.89R FOG     WCI  29
SHEBOYGAN      LGT RAIN  34  33  96 NW5       29.88R FOG     WCI  30
WEST BEND      CLOUDY    34  34 100 NW7       29.88R FOG     WCI  28
JUNEAU         CLOUDY    33  32  99 CALM      29.91R FOG
$$

LSZ147-162-180000-
LAKE SUPERIOR

STATION/POSITION TIME  TEMP    WIND        PRES    WAVE
                       AIR SEA DIR/SP/G            HT/PER
                 (UTC) (F)     (DEG/KT/KT) (MB)    (FT/S)
DEVILS ISLAND    2200   33     240/  6/  7 1014.4S
PORT WING        2240   33     170/  3/  3 1013.5F
SAXON HARBOR     2230   29     200/  1/  2 1013.9S
$$

LMZ867-665-643>646-180000-
LAKE MICHIGAN

STATION/POSITION TIME  TEMP    WIND        PRES    WAVE
                       AIR SEA DIR/SP/G            HT/PER
                 (UTC) (F)     (DEG/KT/KT) (MB)    (FT/S)
NORTHPORT PIER   2240   33      20/  6/ 11 1012.2R
SISTER BAY       2150   33      30/  8/ 10   N/A
ALGOMA LAKESHORE 2108          340/  2/  5   N/A
KEWAUNEE LAKESHO 2230   34     330/  6/  9 1010.8R
SHEBOYGAN LAKESH 2200   35     300/  8/ 10 1011.6R
PORT WASHINGTON  2230   36     290/  6/ 10 1012.9R
MILWAUKEE LAKESH 2230   36     280/ 10/ 12   N/A
KENOSHA   LAKESH 2200   37     260/  8/ 13 1012.5
$$

TC  - TEMPERATURE IN CELSIUS
VSB - VISIBILITY IN STATUTE MILES
WCI - WIND CHILL INDEX
HX  - HEAT INDEX




USA.gov is the U.S. government's official web portal to all federal, state and local government web resources and services.